| time (UTC) | temp F | wind direction | speed knots | gust knots | rain 1hr in | rain 24hr in | rain mn in | humidity % | barometer mb |
| 20260503010404 | 78 | 271 | 0.0 | 3.5 | 0.00 | 0.00 | 0.00 | 48 | 1012.4 |
| 20260503005337 | 78 | 277 | 0.0 | 7.0 | 0.00 | 0.00 | 0.00 | 49 | 1012.5 |
| 20260503004410 | 78 | 270 | 0.0 | 7.8 | 0.00 | 0.00 | 0.00 | 49 | 1012.7 |
| 20260503003330 | 78 | 271 | 0.0 | 1.7 | 0.00 | 0.00 | 0.00 | 50 | 1012.7 |
| 20260503002342 | 77 | 277 | 0.9 | 7.8 | 0.00 | 0.00 | 0.00 | 50 | 1012.6 |
| 20260503001354 | 79 | 269 | 0.0 | 3.5 | 0.00 | 0.00 | 0.00 | 49 | 1012.6 |
| 20260503000404 | 78 | 271 | 0.0 | 1.7 | 0.00 | 0.00 | 0.00 | 51 | 1012.7 |
| 20260502235333 | 77 | 275 | 0.0 | 7.8 | 0.00 | 0.00 | 0.00 | 52 | 1012.8 |
| 20260502234343 | 76 | 299 | 0.0 | 7.8 | 0.00 | 0.00 | 0.00 | 54 | 1012.8 |
| 20260502233324 | 76 | 277 | 0.0 | 7.0 | 0.00 | 0.00 | 0.00 | 54 | 1012.9 |
| 20260502232332 | 76 | 272 | 2.6 | 8.7 | 0.00 | 0.00 | 0.00 | 54 | 1013.2 |
| 20260502231359 | 76 | 274 | 0.9 | 7.0 | 0.00 | 0.00 | 0.00 | 55 | 1013.5 |
| 20260502230331 | 76 | 274 | 0.0 | 7.8 | 0.00 | 0.00 | 0.00 | 54 | 1013.6 |
| 20260502225325 | 76 | 289 | 0.9 | 6.1 | 0.00 | 0.00 | 0.00 | 55 | 1013.7 |
| 20260502224339 | 76 | 267 | 0.9 | 7.0 | 0.00 | 0.00 | 0.00 | 54 | 1013.8 |
| 20260502223333 | 75 | 307 | 0.9 | 7.8 | 0.00 | 0.00 | 0.00 | 56 | 1013.7 |
| 20260502222344 | 75 | 268 | 1.7 | 7.8 | 0.00 | 0.00 | 0.00 | 54 | 1013.9 |
| 20260502221325 | 76 | 254 | 0.9 | 7.8 | 0.00 | 0.00 | 0.00 | 54 | 1013.9 |
| 20260502220335 | 75 | 269 | 0.9 | 7.8 | 0.00 | 0.00 | 0.00 | 55 | 1013.9 |
| 20260502215342 | 75 | 278 | 0.9 | 6.1 | 0.00 | 0.00 | 0.00 | 55 | 1014.1 |
| 20260502214329 | 74 | 261 | 0.0 | 7.0 | 0.00 | 0.00 | 0.00 | 57 | 1014.3 |
| 20260502213339 | 73 | 269 | 0.9 | 8.7 | 0.00 | 0.00 | 0.00 | 58 | 1014.3 |
| 20260502212411 | 73 | 294 | 0.0 | 7.0 | 0.00 | 0.00 | 0.00 | 58 | 1014.5 |